Location: Bremen
(53.0793°N, 8.8017°E)
Time: 00:55:11
(UTC+01:00)

SR - All Passes

Search period start: 28 November 2021 00:00
Search period end: 08 December 2021 00:00
Orbit: 583 x 871 km, 66.7° (Epoch: 27 November)

Date Brightness Start Highest point End Pass type
(mag) Time Alt. Az. Time Alt. Az. Time Alt. Az.
28 Nov - 00:35:02 10° SSE 00:38:18 19° ESE 00:41:27 10° ENE night (unlit)
28 Nov - 02:15:20 10° SW 02:19:52 75° NW 02:24:12 10° NE night (unlit)
28 Nov - 03:59:09 10° WNW 04:02:33 21° NNW 04:05:53 10° NNE visible
28 Nov - 05:43:58 10° NNW 05:46:08 13° N 05:48:17 10° NNE visible
28 Nov - 07:26:27 10° NNW 07:29:43 21° NNE 07:33:01 10° ENE visible
28 Nov - 09:08:08 10° NW 09:12:24 74° NE 09:16:48 10° SE daylight
28 Nov - 10:50:55 10° WNW 10:53:57 19° WSW 10:57:03 10° SSW daylight
29 Nov - 01:25:32 10° SSW 01:30:01 62° SE 01:34:19 10° NE night (unlit)
29 Nov - 03:08:24 10° W 03:12:19 30° NW 03:16:08 10° NNE visible
29 Nov - 04:53:17 10° NW 04:55:39 14° N 04:58:01 10° NNE visible
29 Nov - 06:36:38 10° NNW 06:39:22 16° NNE 06:42:07 10° ENE visible
29 Nov - 08:18:20 10° NNW 08:22:26 43° NE 08:26:37 10° ESE daylight
29 Nov - 10:00:28 10° NW 10:04:22 35° WSW 10:08:23 10° S daylight
30 Nov - 00:36:13 10° S 00:40:19 33° ESE 00:44:13 10° NE night (unlit)
30 Nov - 02:17:53 10° WSW 02:22:13 46° NW 02:26:23 10° NNE night (unlit)
30 Nov - 04:02:21 10° WNW 04:05:14 17° NNW 04:08:04 10° NNE visible
30 Nov - 05:46:37 10° NNW 05:48:55 14° N 05:51:14 10° NE visible
30 Nov - 07:28:35 10° NNW 07:32:18 28° NNE 07:36:04 10° E visible
30 Nov - 09:10:24 10° NW 09:14:39 66° SW 09:19:02 10° SSE daylight
30 Nov - 10:55:08 10° W 10:55:50 10° WSW 10:56:32 10° WSW daylight
30 Nov - 23:47:38 10° SSE 23:50:44 18° ESE 23:53:43 10° ENE night (unlit)
01 Dec - 01:27:43 10° SW 01:32:15 79° NW 01:36:35 10° NE night (unlit)
01 Dec - 03:11:27 10° WNW 03:14:53 22° NNW 03:18:16 10° NNE visible
01 Dec - 04:56:17 10° NNW 04:58:27 13° N 05:00:36 10° NNE visible
01 Dec - 06:38:50 10° NNW 06:42:03 20° NNE 06:45:18 10° ENE visible
01 Dec - 08:20:31 10° NW 08:24:47 70° NE 08:29:11 10° SE daylight
01 Dec - 10:03:12 10° WNW 10:06:22 20° WSW 10:09:38 10° SSW daylight
02 Dec - 00:37:58 10° SSW 00:42:25 57° SE 00:46:40 10° NE night (unlit)
02 Dec - 02:20:43 10° W 02:24:40 31° NW 02:28:31 10° NNE night (unlit)
02 Dec - 04:05:33 10° NW 04:07:59 14° N 04:10:22 10° NNE visible
02 Dec - 05:49:00 10° NNW 05:51:41 16° NNE 05:54:23 10° NE visible
02 Dec - 07:30:43 10° NNW 07:34:47 41° NE 07:38:57 10° ESE visible
02 Dec - 09:12:48 10° NW 09:16:46 37° WSW 09:20:53 10° S daylight
02 Dec - 23:48:44 10° S 23:52:43 31° ESE 23:56:33 10° NE night (unlit)
03 Dec - 01:30:15 10° WSW 01:34:35 48° NW 01:38:46 10° NNE night (unlit)
03 Dec - 03:14:38 10° WNW 03:17:33 17° NNW 03:20:26 10° NNE visible
03 Dec - 04:58:58 10° NNW 05:01:15 14° N 05:03:31 10° NE visible
03 Dec - 06:40:59 10° NNW 06:44:39 27° NNE 06:48:23 10° E visible
03 Dec - 08:22:45 10° NW 08:27:02 70° SW 08:31:27 10° SSE daylight
03 Dec - 10:06:55 10° W 10:08:16 11° WSW 10:09:39 10° SW daylight
03 Dec - 23:00:16 10° SSE 23:03:09 17° ESE 23:05:57 10° ENE night (unlit)
04 Dec - 00:40:07 10° SW 00:44:38 84° NW 00:48:57 10° NE night (unlit)
04 Dec - 02:23:44 10° W 02:27:13 22° NNW 02:30:38 10° NNE night (unlit)
04 Dec - 04:08:36 10° NNW 04:10:45 13° N 04:12:56 10° NNE visible
04 Dec - 05:51:13 10° NNW 05:54:23 20° NNE 05:57:35 10° ENE visible
04 Dec - 07:32:53 10° NW 07:37:09 66° NE 07:41:34 10° SE visible
04 Dec - 09:15:29 10° WNW 09:18:47 22° WSW 09:22:12 10° SSW daylight
04 Dec - 23:50:25 10° SSW 23:54:49 53° ESE 23:59:01 10° NE night (unlit)
05 Dec - 01:33:02 10° W 01:37:01 32° NW 01:40:54 10° NNE night (unlit)
05 Dec - 03:17:50 10° NW 03:20:18 15° N 03:22:44 10° NNE visible
05 Dec - 05:01:23 10° NNW 05:04:01 16° NNE 05:06:40 10° NE visible
05 Dec - 06:43:06 10° NNW 06:47:08 39° NE 06:51:17 10° ESE visible
05 Dec - 08:25:08 10° NW 08:29:10 40° WSW 08:33:21 10° S daylight
05 Dec - 23:01:14 10° S 23:05:07 29° ESE 23:08:52 10° ENE night (unlit)
06 Dec - 00:42:35 10° WSW 00:46:57 51° NW 00:51:09 10° NE night (unlit)
06 Dec - 02:26:55 10° WNW 02:29:52 18° NNW 02:32:48 10° NNE night (unlit)
06 Dec - 04:11:19 10° NNW 04:13:33 14° N 04:15:48 10° NE visible
06 Dec - 05:53:22 10° NNW 05:56:59 26° NNE 06:00:41 10° E visible
06 Dec - 07:35:07 10° NW 07:39:24 75° SW 07:43:52 10° SSE visible
06 Dec - 09:18:55 10° W 09:20:42 12° WSW 09:22:31 10° SW daylight
06 Dec - 22:12:54 10° SSE 22:15:34 16° ESE 22:18:10 10° ENE night (unlit)
06 Dec - 23:52:30 10° SW 23:57:00 89° NW 00:01:19 10° NE night (unlit)
07 Dec - 01:36:02 10° W 01:39:34 23° NNW 01:43:02 10° NNE night (unlit)
07 Dec - 03:20:54 10° NW 03:23:04 13° N 03:25:15 10° NNE visible
07 Dec - 05:03:36 10° NNW 05:06:42 19° NNE 05:09:51 10° ENE visible
07 Dec - 06:45:16 10° NW 06:49:31 62° NE 06:53:56 10° SE visible
07 Dec - 08:27:45 10° WNW 08:31:12 23° WSW 08:34:45 10° SSW daylight
07 Dec - 23:02:51 10° SSW 23:07:12 50° ESE 23:11:22 10° NE night (unlit)
